[[{"header":{"parameterUnit":"m.s-1","parameterCategory":1,"la1":30.2991,"la2":30.254,"lo1":-89.0895,"lo2":-89.0444,"dy":0.0017,"dx":0.0017,"nx":28,"ny":28,"refTime":"2023-09-27T21:00:00:Z","depth":0,"parameterNumber":2,"parameterNumberName":"U-component_of_WINDS"},"data":[0,0,0,0,0,0,0,0,0,0,0,0,0,0,0,0,0,0,0,0,0,0,0,0,0,0,0,0,0,0,0,0,0,0,0,0,0,0,0,0,0,0,0,0,0,0,0,0,0,0,0,0,0,0,0,0,0,0,-6.7133,-6.7134,0,-6.7228,-6.7229,-6.723,-6.7099,-6.7094,-6.7089,-6.7085,-6.7176,-6.7183,-6.719,0,0,0,0,0,0,0,0,0,0,0,0,0,-6.6832,-6.6839,-6.7133,-6.7134,-6.7135,-6.7228,-6.7229,-6.723,-6.7099,-6.7094,-6.7088,-6.7083,-6.7174,-6.7182,-6.719,0,0,0,0,0,0,0,0,0,0,0,0,0,-6.6949,-6.6841,-6.7133,-6.7081,-6.7078,-6.7227,-6.7229,-6.7231,-6.7101,-6.7094,-6.7087,-6.708,-6.7171,-6.7181,-6.7191,-6.7394,0,0,-6.7222,-6.7227,0,0,0,0,0,0,0,0,-6.6942,-6.696,-6.7088,-6.7085,-6.7081,-6.7144,-6.7156,-6.7285,-6.7102,-6.7092,-6.7085,-6.7077,-6.7171,-6.7181,-6.7214,-6.7399,-6.7402,-6.7223,-6.723,-6.7234,-6.7237,0,0,0,0,0,0,0,-6.6934,-6.6955,-6.717,-6.709,-6.7086,-6.7051,-6.706,-6.718,-6.7169,-6.7092,-6.7083,-6.7096,-6.7168,-6.7204,-6.7215,-6.7404,-6.7223,-6.7232,-6.7238,-6.7242,-6.7758,-6.7765,0,0,0,0,0,0,-6.6933,-6.6949,-6.7167,-6.7173,-6.6993,-6.7063,-6.7072,-6.7131,-6.7168,-6.7167,-6.7102,-6.709,-6.719,-6.7203,-6.7218,-6.7456,-6.7234,-6.7243,-6.7249,-6.775,-6.776,-6.7768,0,0,0,0,0,0,-6.6927,-6.6954,-6.7163,-6.7059,-6.7083,-6.7075,-6.7142,-6.7137,-6.7173,-6.7175,-6.7172,-6.7142,-6.7185,-6.7203,-6.7351,-6.7457,-6.7248,-6.7257,-6.7741,-6.7753,-6.7764,-6.7936,0,0,0,0,0,0,-6.6919,-6.6953,-6.7031,-6.7062,-6.7089,-6.7298,-6.7149,-6.7144,-6.7191,-6.7176,-6.7212,-6.7211,-6.7181,-6.7337,-6.7361,-6.7468,-6.7265,-6.7732,-6.7747,-6.776,-6.792,-6.7951,-6.7978,0,0,0,0,0,-6.6909,-6.7075,-6.7036,-6.7063,-6.7187,-6.7304,-6.732,-6.7284,-6.7201,-6.7278,-6.728,-6.7209,-6.7443,-6.7353,-6.738,-6.749,-6.7725,-6.7742,-6.7759,-6.7907,-6.7945,-6.7977,0,0,0,0,0,0,-6.7055,-6.7078,-6.7035,-6.7216,-6.726,-6.7282,-6.7379,-6.7326,-6.7392,-6.7375,-6.7326,-6.7335,-6.7493,-6.7507,-6.7407,-6.7688,-6.7569,-6.7593,-6.7673,-6.7709,-6.7738,-6.773,-6.7274,0,0,0,0,0,-6.7109,-6.7204,-6.7218,-6.7376,-6.7401,-6.7387,-6.7436,-6.7405,-6.7447,-6.7464,-6.7476,-6.7519,-6.7601,-6.7656,-6.7732,-6.7922,-6.7927,-6.8012,-6.804,-6.8064,-6.8084,-6.8184,-6.8221,-6.7824,-6.7824,-6.7823,0,0,-6.7219,-6.7244,-6.7307,-6.7406,-6.7436,-6.7534,-6.7403,-6.7511,-6.7582,-6.748,-6.7621,-6.7632,-6.7675,-6.7845,-6.792,-6.7861,-6.8195,-6.8086,-6.8105,-6.8112,-6.8205,-6.8243,-6.8276,-6.7835,-6.7833,-6.7831,0,0,-6.7471,-6.7501,-6.7635,-6.7668,-6.7716,-6.7705,-6.7738,-6.7769,-6.7773,-6.7914,-6.7838,-6.7922,-6.8065,-6.8099,-6.8135,-6.84,-6.8337,-6.8426,-6.8576,-6.8674,-6.8705,-6.8733,-6.8825,-6.886,-6.8447,-6.8447,-6.8447,0,-6.7602,-6.7748,-6.771,-6.7824,-6.7869,-6.7784,-6.7918,-6.7951,-6.8021,-6.8053,-6.7987,-6.8165,-6.8188,-6.8364,-6.8429,-6.8461,-6.8495,-6.8421,-6.8704,-6.8731,-6.8756,-6.8844,-6.8879,-6.8457,-6.8456,-6.8455,-6.8454,0,-6.7906,-6.8008,-6.8111,-6.8182,-6.8239,-6.8363,-6.8341,-6.8403,-6.8368,-6.8364,-6.8507,-6.8533,-6.8612,-6.8652,-6.8618,-6.8823,-6.8784,-6.8713,-6.8592,-6.8805,-6.8887,-6.892,-6.8472,-6.8469,-6.8465,-6.8463,0,0,-6.825,-6.83,-6.8338,-6.8368,-6.8415,-6.8493,-6.8612,-6.8691,-6.8744,-6.8796,-6.8893,-6.9017,-6.895,-6.8991,-6.896,-6.9047,-6.9253,-6.8963,-6.8963,-6.9014,-6.9478,-6.9531,-6.9571,-6.9213,-6.9219,-6.9224,-6.9474,0,-6.8499,-6.8708,-6.8677,-6.8877,-6.8969,-6.889,-6.8993,-6.9032,-6.9033,-6.911,-6.9108,-6.9196,-6.9103,-6.9127,-6.9209,-6.9211,-6.9345,-6.9192,-6.93,-6.9305,-6.929,-6.9614,-6.9669,-6.9904,-6.9506,-6.9511,-6.9515,0,-6.8818,-6.8883,-6.9093,-6.9124,-6.9162,-6.9256,-6.9326,-6.9402,-6.9444,-6.9437,-6.9484,-6.9437,-6.9554,-6.9435,-6.9594,-6.9491,-6.9533,-6.9541,-6.9549,-6.9556,-6.9421,-6.9627,-6.9978,-7.0013,-6.9565,-6.9561,-6.9558,0,-6.9045,-6.9185,-6.9328,-6.9357,-6.9399,-6.9466,-6.9486,-6.9522,-6.9571,-6.9632,-6.9663,-6.9736,-6.9776,-6.9833,-6.9806,-6.9722,-6.9971,-6.9848,-6.9966,-6.9967,-7.002,-7.0017,-7.0381,-7.0052,-7.0052,-7.0051,-7.005,0,-6.9326,-6.9456,-6.943,-6.9518,-6.9662,-6.9625,-6.9767,-6.9778,-6.981,-6.9897,-6.9833,-6.9915,-6.9876,-6.9956,-6.9936,-7.007,-7.0089,-7.0085,-7.0078,-7.009,-7.009,-7.0115,-7.0097,-7.006,-7.0058,-7.0057,-7.0055,0,-6.9602,-6.9591,-6.9741,-6.9769,-6.9779,-6.9883,-6.9906,-6.9987,-6.9983,-7.0093,-7.0117,-7.011,-7.02,-7.018,-7.0279,-7.0265,-7.0433,-7.0407,-7.042,-7.0412,-7.0531,-7.0519,-7.0922,-7.0972,-7.0613,-7.0617,-7.062,0,-6.9781,-6.988,-6.9919,-6.9973,-6.9999,-7.0088,-7.0138,-7.0106,-7.0161,-7.0217,-7.0291,-7.0376,-7.0441,-7.0589,-7.0591,-7.0666,-7.0639,-7.0775,-7.065,-7.0658,-7.0638,-7.0632,-7.0641,-7.0799,-7.0803,-7.0807,-7.0809,0,-7.0098,-7.0088,-7.0164,-7.0239,-7.0302,-7.0359,-7.0409,-7.0457,-7.0428,-7.0493,-7.0586,-7.0637,-7.0739,-7.0823,-7.0892,-7.091,-7.0855,-7.085,-7.088,-7.0892,-7.0894,-7.0893,-7.0485,-7.084,-7.0837,-7.0834,-7.0833,-7.0832,-7.0329,-7.0413,-7.0454,-7.0541,-7.0576,-7.0625,-7.0702,-7.0709,-7.0786,-7.0867,-7.0843,-7.0947,-7.0986,-7.1074,-7.1101,-7.1181,-7.1129,-7.1175,-7.1186,-7.1197,-7.121,-7.0885,-7.1194,-7.1193,-7.1192,-7.1191,-7.1191,0,-7.0641,-7.0663,-7.0744,-7.0818,-7.0886,-7.0831,-7.0884,-7.0944,-7.1038,-7.108,-7.1146,-7.1252,-7.1334,-7.1344,-7.142,-7.1482,-7.1459,-7.1503,-7.1497,-7.1502,-7.1253,-7.1218,-7.1521,-7.1521,-7.1521,-7.1521,-7.1521,-7.1521,-7.0811,-7.0949,-7.0944,-7.1098,-7.1119,-7.1223,-7.1258,-7.1302,-7.1335,-7.1457,-7.1525,-7.1531,-7.156,-7.1638,-7.171,-7.1711,-7.1741,-7.1795,-7.1786,-7.1553,-7.1519,-7.1488,-7.1454,-7.1803,-7.1803,-7.2027,-7.203,-7.2031]},{"header":{"parameterUnit":"m.s-1","parameterCategory":1,"la1":30.2991,"la2":30.254,"lo1":-89.0895,"lo2":-89.0444,"dy":0.0017,"dx":0.0017,"nx":28,"ny":28,"refTime":"2023-09-27T21:00:00:Z","depth":0,"parameterNumber":3,"parameterNumberName":"V-component_of_WINDS"},"data":[0,0,0,0,0,0,0,0,0,0,0,0,0,0,0,0,0,0,0,0,0,0,0,0,0,0,0,0,0,0,0,0,0,0,0,0,0,0,0,0,0,0,0,0,0,0,0,0,0,0,0,0,0,0,0,0,0,0,-0.6014,-0.6015,0,-0.6115,-0.6116,-0.6117,-0.6162,-0.6162,-0.6162,-0.6162,-0.6267,-0.627,-0.6273,0,0,0,0,0,0,0,0,0,0,0,0,0,-0.5862,-0.5864,-0.6014,-0.6015,-0.6017,-0.6114,-0.6116,-0.6117,-0.6162,-0.6162,-0.6162,-0.6162,-0.6266,-0.627,-0.6273,0,0,0,0,0,0,0,0,0,0,0,0,0,-0.5942,-0.5865,-0.6014,-0.6051,-0.6055,-0.6114,-0.6116,-0.6118,-0.6162,-0.6162,-0.6162,-0.6161,-0.6265,-0.627,-0.6274,-0.6305,0,0,-0.6287,-0.6289,0,0,0,0,0,0,0,0,-0.5937,-0.5947,-0.6044,-0.6048,-0.6053,-0.6126,-0.6101,-0.6181,-0.6162,-0.6121,-0.6162,-0.6161,-0.6221,-0.6229,-0.6248,-0.631,-0.6314,-0.6288,-0.629,-0.6292,-0.6294,0,0,0,0,0,0,0,-0.5932,-0.5943,-0.6054,-0.6045,-0.6051,-0.6062,-0.6074,-0.6116,-0.6171,-0.6125,-0.6128,-0.614,-0.6223,-0.6244,-0.6251,-0.6316,-0.6288,-0.6292,-0.6294,-0.6296,-0.6407,-0.6408,0,0,0,0,0,0,-0.592,-0.5938,-0.6051,-0.6057,-0.5993,-0.6065,-0.6078,-0.6103,-0.6171,-0.6181,-0.614,-0.6141,-0.6236,-0.6246,-0.6255,-0.6295,-0.6292,-0.6296,-0.6299,-0.6407,-0.6407,-0.6408,0,0,0,0,0,0,-0.5916,-0.5929,-0.6047,-0.5999,-0.6014,-0.6068,-0.6096,-0.6105,-0.6125,-0.6182,-0.6192,-0.6151,-0.6236,-0.6249,-0.6292,-0.6299,-0.6298,-0.6302,-0.6407,-0.6407,-0.6408,-0.6376,0,0,0,0,0,0,-0.5912,-0.5928,-0.594,-0.5999,-0.6017,-0.6081,-0.6096,-0.6107,-0.6132,-0.6136,-0.6195,-0.6204,-0.6237,-0.6285,-0.6296,-0.6305,-0.6306,-0.6406,-0.6407,-0.6407,-0.6376,-0.6375,-0.6374,0,0,0,0,0,-0.5906,-0.5928,-0.594,-0.5954,-0.6033,-0.6082,-0.6092,-0.6129,-0.6133,-0.6146,-0.6182,-0.6202,-0.6296,-0.6289,-0.6302,-0.6313,-0.6406,-0.6407,-0.6407,-0.6377,-0.6375,-0.6374,0,0,0,0,0,0,-0.587,-0.5936,-0.5951,-0.5992,-0.6031,-0.6089,-0.6107,-0.6126,-0.6166,-0.6167,-0.6212,-0.6225,-0.6264,-0.6293,-0.6283,-0.6346,-0.6353,-0.6356,-0.6325,-0.6324,-0.6323,-0.6316,-0.6309,0,0,0,0,0,-0.5867,-0.5901,-0.5957,-0.5988,-0.6006,-0.6053,-0.6076,-0.61,-0.6142,-0.6159,-0.6199,-0.6239,-0.6278,-0.6303,-0.6342,-0.638,-0.6394,-0.6394,-0.6393,-0.6392,-0.6394,-0.6416,-0.6417,-0.641,-0.641,-0.641,0,0,-0.5861,-0.5901,-0.592,-0.5981,-0.6014,-0.6048,-0.6066,-0.6102,-0.6128,-0.6165,-0.6208,-0.6238,-0.6286,-0.6327,-0.6347,-0.6352,-0.6399,-0.6393,-0.6391,-0.6395,-0.6417,-0.6418,-0.6418,-0.6411,-0.641,-0.641,0,0,-0.5868,-0.5901,-0.593,-0.5962,-0.6011,-0.6042,-0.6048,-0.6104,-0.6125,-0.6168,-0.6196,-0.6228,-0.6294,-0.6327,-0.6352,-0.6368,-0.6389,-0.638,-0.6374,-0.6395,-0.6395,-0.6396,-0.6402,-0.6403,-0.6382,-0.6382,-0.6382,0,-0.5854,-0.5906,-0.5943,-0.5976,-0.6002,-0.6036,-0.6066,-0.6095,-0.6155,-0.6172,-0.6177,-0.6259,-0.6294,-0.6343,-0.6346,-0.6366,-0.6375,-0.6374,-0.6392,-0.6393,-0.6394,-0.64,-0.6402,-0.6381,-0.6381,-0.6381,-0.6381,0,-0.5887,-0.5922,-0.594,-0.5995,-0.6023,-0.6054,-0.6096,-0.612,-0.6141,-0.6171,-0.6215,-0.6257,-0.6305,-0.6318,-0.634,-0.637,-0.6371,-0.6383,-0.6392,-0.6393,-0.6399,-0.6402,-0.6378,-0.6379,-0.6379,-0.638,0,0,-0.5875,-0.5949,-0.5954,-0.5979,-0.6035,-0.6063,-0.6096,-0.6141,-0.616,-0.62,-0.6228,-0.6282,-0.6293,-0.6322,-0.6348,-0.6366,-0.6375,-0.6376,-0.6377,-0.6374,-0.641,-0.64,-0.6402,-0.6389,-0.6389,-0.639,-0.6406,0,-0.5889,-0.5948,-0.5982,-0.6027,-0.606,-0.6091,-0.612,-0.6157,-0.6185,-0.6217,-0.6249,-0.6287,-0.6298,-0.6316,-0.6335,-0.637,-0.6383,-0.6369,-0.6416,-0.6417,-0.6403,-0.6406,-0.6397,-0.641,-0.6408,-0.6409,-0.6409,0,-0.5914,-0.5951,-0.5999,-0.605,-0.6065,-0.6089,-0.6133,-0.6163,-0.6206,-0.6225,-0.6256,-0.6281,-0.6317,-0.6321,-0.6371,-0.6361,-0.6382,-0.6402,-0.6403,-0.6409,-0.6414,-0.6412,-0.6415,-0.6416,-0.6413,-0.6413,-0.6413,0,-0.59,-0.5962,-0.5999,-0.6019,-0.6079,-0.6096,-0.6121,-0.6164,-0.6188,-0.6226,-0.6242,-0.6284,-0.6308,-0.634,-0.6376,-0.6376,-0.6422,-0.6429,-0.6439,-0.6438,-0.6448,-0.6447,-0.6454,-0.6461,-0.6461,-0.6461,-0.6461,0,-0.5913,-0.5941,-0.5993,-0.6016,-0.6048,-0.6086,-0.6117,-0.6146,-0.6182,-0.6211,-0.6241,-0.6268,-0.6313,-0.6346,-0.6374,-0.6411,-0.6421,-0.6438,-0.6445,-0.6435,-0.6433,-0.645,-0.645,-0.6461,-0.6461,-0.6461,-0.6461,0,-0.5903,-0.594,-0.5981,-0.6034,-0.6048,-0.6069,-0.6114,-0.6137,-0.6166,-0.6202,-0.6213,-0.6259,-0.6298,-0.6337,-0.639,-0.6409,-0.6445,-0.6455,-0.6431,-0.6435,-0.6442,-0.6441,-0.6461,-0.6465,-0.6468,-0.6468,-0.6468,0,-0.5909,-0.5931,-0.5985,-0.6006,-0.6031,-0.6064,-0.6089,-0.6126,-0.6151,-0.62,-0.6217,-0.6258,-0.6293,-0.6354,-0.6393,-0.6434,-0.6445,-0.6449,-0.6451,-0.644,-0.6445,-0.6443,-0.6445,-0.6448,-0.6447,-0.6447,-0.6447,0,-0.5915,-0.5932,-0.5966,-0.6005,-0.6033,-0.6067,-0.6102,-0.6117,-0.6161,-0.6187,-0.6227,-0.6254,-0.6307,-0.6347,-0.6392,-0.6419,-0.6441,-0.6446,-0.645,-0.6441,-0.6425,-0.6434,-0.6428,-0.6445,-0.6446,-0.6446,-0.6446,-0.6446,-0.5914,-0.5935,-0.5975,-0.6012,-0.6041,-0.6072,-0.6096,-0.6128,-0.6161,-0.6206,-0.6227,-0.6266,-0.6308,-0.6369,-0.6396,-0.6428,-0.6434,-0.644,-0.6442,-0.6443,-0.644,-0.6419,-0.6436,-0.6436,-0.6437,-0.6437,-0.6437,0,-0.5922,-0.5949,-0.5982,-0.6028,-0.6057,-0.6073,-0.6111,-0.6134,-0.6169,-0.6204,-0.6237,-0.6283,-0.6321,-0.6362,-0.6403,-0.6421,-0.6432,-0.6431,-0.643,-0.6436,-0.6433,-0.6425,-0.6421,-0.6421,-0.6421,-0.6421,-0.6421,-0.6421,-0.5929,-0.5964,-0.5985,-0.6036,-0.6063,-0.6101,-0.6122,-0.6151,-0.6179,-0.6228,-0.626,-0.6286,-0.6323,-0.6367,-0.6404,-0.6415,-0.6429,-0.6425,-0.6438,-0.6435,-0.6436,-0.6437,-0.643,-0.6427,-0.6427,-0.6439,-0.6439,-0.6439]}]]